STARLINK-2735, 48667

Orbit data source: Space-Track

STARLINK-2735, 48667 is a payload satellite owned by SpaceX/Seattle (US) in LEO that was launched on Wed, 26 May 2021 UTC via an FALCON 9 launch vehicle from the Air Force Eastern Test Range (AFETR). Payload-class satellites include a variety of spacecraft equipped with specific instruments for various scientific and technological missions. These include communications satellites like Starlink; space stations such as the ISS; scientific satellites like the Hubble; Earth observation satellites from companies like Planet Labs, Umbra, and HawkEye 360; GPS; miniature CubeSats for education and research; and military/defense satellites.

Loading next visibility...
Identifier
48667, 2021-044AF
Orbit
LEO
Country
Flag of USUS
Related business
Manufacturer
SpaceX/Seattle
Mission
Partially operational Commercial Communications
Bus & Motor
STARLINK, Unknown motor
Mass
260 kg wet, ~248 kg dry
Launch date (UTC)
2021-05-26 (5 years ago)
Launch vehicle
FALCON 9
Launch site
Air Force Eastern Test Range (AFETR)
Object type
Payload
Rocket body
Debris
Shape & HBR
Box + 1 Pan, 10.1 m
Radar Cross Section
13.562 m², Large (>1 m²)

Expand to show TLE details & history
Last TLE update: 3 days ago

TLE from 3 days ago
0 STARLINK-2735
1 48667U 21044AF  26170.89982132 -.00000352  00000-0  13598-6 0  9993
2 48667  53.1590 359.2580 0001462  96.0031 264.1136 15.29352398279468
Epoch: 2026-06-19T21:35Z
TLE epoch observation values (Epoch: 2026-06-19T21:35:44.562Z)
Latitude
-0°
Longitude
127.20015°
Altitude
478.749 km
Speed
7.627 km/s
True Right ascension
23h 57m 01s
True Declination
0° 00' 00"
Sunlit
Object was in daylight at epoch
Visualization orbit readout
Latitude
Unknown
Longitude
Unknown
Altitude
Unknown
Speed
Unknown
Apparent Right ascension
Unknown
Apparent Declination
Unknown
Sunlit
N/A
Visualization observer readout
Local Sidereal Time
02:13:12
Azimuth
Unknown
Elevation
Unknown
Doppler factor
Unknown
Orbital elements
Apogee altitude
479.006 km
Perigee altitude
477.001 km
Semi-major axis
6,856.141 km
Eccentricity
0.00015
Inclination
53.159°
RAAN
359.258°
Arg. of periapsis
96.0031°
True anomaly
264.09694°
Mean anomaly
264.1136°
Eccentric anomaly
264.10527°
Mean motion
3.82317 °/min
Orbital period
94.16 mins
BSTAR
1.3598e-7
Loading maneuver chart data...
Computing Atmospheric mass density...
Loading historical data...
Loading historical data...
Loading historical data...
Loading historical data...
Loading historical data...
Loading historical data...
Loading historical data...

Documentation

Showing up to 5 results
|